TimeEST,TemperatureF,Dew PointF,Humidity,Sea Level PressureIn,VisibilityMPH,Wind Direction,Wind SpeedMPH,Gust SpeedMPH,PrecipitationIn,Events,Conditions,WindDirDegrees,DateUTC
12:15 AM,21.2,21.2,100,29.93,10.0,West,9.2,-,N/A,,Overcast,260,2012-12-24 05:15:00
12:35 AM,21.2,21.2,100,29.93,10.0,WSW,6.9,-,N/A,,Overcast,250,2012-12-24 05:35:00
12:55 AM,21.2,19.4,93,29.93,10.0,West,9.2,-,N/A,,Overcast,260,2012-12-24 05:55:00
1:15 AM,21.2,19.4,93,29.93,10.0,WSW,8.1,-,N/A,,Overcast,250,2012-12-24 06:15:00
1:35 AM,23.0,19.4,86,29.92,10.0,WSW,8.1,-,N/A,,Overcast,250,2012-12-24 06:35:00
1:55 AM,23.0,19.4,86,29.93,10.0,WSW,8.1,-,N/A,,Overcast,250,2012-12-24 06:55:00
2:15 AM,23.0,19.4,86,29.93,10.0,WSW,6.9,-,N/A,,Overcast,250,2012-12-24 07:15:00
2:35 AM,23.0,21.2,93,29.94,10.0,WSW,6.9,-,N/A,,Overcast,240,2012-12-24 07:35:00
2:55 AM,23.0,21.2,93,29.95,10.0,WSW,9.2,-,N/A,,Overcast,250,2012-12-24 07:55:00
3:15 AM,23.0,19.4,86,29.95,10.0,WSW,6.9,-,N/A,,Overcast,240,2012-12-24 08:15:00
3:35 AM,23.0,19.4,86,29.95,10.0,WSW,5.8,-,N/A,,Overcast,250,2012-12-24 08:35:00
3:55 AM,23.0,19.4,86,29.95,10.0,WSW,5.8,-,N/A,,Overcast,240,2012-12-24 08:55:00
4:15 AM,23.0,19.4,86,29.94,10.0,WSW,5.8,-,N/A,,Overcast,250,2012-12-24 09:15:00
4:35 AM,21.2,19.4,93,29.95,10.0,WSW,5.8,-,N/A,,Overcast,240,2012-12-24 09:35:00
4:55 AM,21.2,19.4,93,29.94,10.0,WSW,5.8,-,N/A,,Overcast,240,2012-12-24 09:55:00
5:15 AM,21.2,19.4,93,29.94,10.0,WSW,5.8,-,N/A,,Overcast,250,2012-12-24 10:15:00
5:35 AM,21.2,19.4,93,29.93,10.0,West,5.8,-,N/A,,Overcast,260,2012-12-24 10:35:00
5:55 AM,21.2,19.4,93,29.93,10.0,WSW,4.6,-,N/A,,Overcast,250,2012-12-24 10:55:00
6:15 AM,21.2,19.4,93,29.93,10.0,WSW,5.8,-,N/A,,Overcast,240,2012-12-24 11:15:00
6:35 AM,21.2,19.4,93,29.93,10.0,SW,5.8,-,N/A,,Overcast,230,2012-12-24 11:35:00
6:55 AM,21.2,19.4,93,29.93,10.0,SW,4.6,-,N/A,,Overcast,220,2012-12-24 11:55:00
7:15 AM,21.2,19.4,93,29.93,10.0,SW,5.8,-,N/A,,Overcast,220,2012-12-24 12:15:00
7:35 AM,21.2,19.4,93,29.93,10.0,SW,5.8,-,N/A,,Overcast,230,2012-12-24 12:35:00
7:55 AM,21.2,19.4,93,29.94,10.0,SW,4.6,-,N/A,,Overcast,230,2012-12-24 12:55:00
8:15 AM,21.2,19.4,93,29.94,10.0,SW,4.6,-,N/A,,Overcast,230,2012-12-24 13:15:00
8:35 AM,21.2,19.4,93,29.94,10.0,WSW,4.6,-,N/A,,Overcast,240,2012-12-24 13:35:00
8:55 AM,21.2,19.4,93,29.95,10.0,WSW,4.6,-,N/A,,Overcast,250,2012-12-24 13:55:00
9:15 AM,21.2,19.4,93,29.95,10.0,WSW,3.5,-,N/A,,Overcast,240,2012-12-24 14:15:00
9:35 AM,21.2,19.4,93,29.95,10.0,SW,3.5,-,N/A,,Overcast,230,2012-12-24 14:35:00
9:55 AM,23.0,19.4,86,29.95,10.0,WSW,3.5,-,N/A,,Overcast,240,2012-12-24 14:55:00
10:15 AM,23.0,19.4,86,29.95,10.0,WSW,3.5,-,N/A,,Overcast,240,2012-12-24 15:15:00
10:35 AM,24.8,19.4,80,29.96,10.0,WSW,4.6,-,N/A,,Overcast,240,2012-12-24 15:35:00
10:55 AM,24.8,19.4,80,29.96,10.0,WSW,3.5,-,N/A,,Overcast,240,2012-12-24 15:55:00
11:15 AM,24.8,19.4,80,29.96,10.0,WSW,4.6,-,N/A,,Overcast,250,2012-12-24 16:15:00
11:35 AM,24.8,19.4,80,29.95,10.0,WSW,5.8,-,N/A,,Overcast,240,2012-12-24 16:35:00
11:55 AM,24.8,19.4,80,29.95,10.0,WSW,8.1,-,N/A,,Overcast,250,2012-12-24 16:55:00
12:15 PM,26.6,19.4,74,29.95,10.0,WSW,5.8,-,N/A,,Overcast,250,2012-12-24 17:15:00
12:35 PM,26.6,21.2,80,29.94,10.0,West,5.8,-,N/A,,Overcast,260,2012-12-24 17:35:00
12:55 PM,26.6,21.2,80,29.94,10.0,West,6.9,-,N/A,,Overcast,260,2012-12-24 17:55:00
1:15 PM,26.6,21.2,80,29.94,10.0,WSW,5.8,-,N/A,,Overcast,250,2012-12-24 18:15:00
1:35 PM,26.6,21.2,80,29.93,10.0,West,9.2,-,N/A,,Overcast,260,2012-12-24 18:35:00
1:55 PM,26.6,21.2,80,29.93,10.0,West,6.9,-,N/A,,Overcast,280,2012-12-24 18:55:00
2:15 PM,26.6,21.2,80,29.92,10.0,West,8.1,-,N/A,,Overcast,270,2012-12-24 19:15:00
2:35 PM,26.6,21.2,80,29.92,10.0,West,6.9,-,N/A,,Overcast,270,2012-12-24 19:35:00
2:55 PM,26.6,21.2,80,29.93,10.0,West,5.8,-,N/A,,Overcast,270,2012-12-24 19:55:00
3:15 PM,26.6,21.2,80,29.93,10.0,West,6.9,-,N/A,,Overcast,270,2012-12-24 20:15:00
3:35 PM,26.6,21.2,80,29.93,10.0,West,5.8,-,N/A,,Overcast,260,2012-12-24 20:35:00
3:55 PM,26.6,21.2,80,29.93,8.0,West,6.9,-,N/A,,Overcast,270,2012-12-24 20:55:00
4:15 PM,24.8,21.2,86,29.94,6.0,West,4.6,-,N/A,,Overcast,270,2012-12-24 21:15:00
4:35 PM,24.8,21.2,86,29.94,7.0,West,4.6,-,N/A,,Overcast,270,2012-12-24 21:35:00
4:55 PM,24.8,21.2,86,29.94,10.0,West,5.8,-,N/A,,Overcast,260,2012-12-24 21:55:00
5:15 PM,24.8,23.0,93,29.95,7.0,West,4.6,-,N/A,,Overcast,270,2012-12-24 22:15:00
5:35 PM,24.8,23.0,93,29.95,4.0,West,5.8,-,N/A,,Overcast,260,2012-12-24 22:35:00
5:55 PM,24.8,23.0,93,29.96,3.0,West,4.6,-,N/A,,Overcast,260,2012-12-24 22:55:00
6:15 PM,24.8,23.0,93,29.96,4.0,WSW,3.5,-,N/A,,Overcast,250,2012-12-24 23:15:00
6:35 PM,23.0,23.0,100,29.96,9.0,WSW,4.6,-,N/A,,Overcast,250,2012-12-24 23:35:00
6:55 PM,23.0,21.2,93,29.97,10.0,WSW,3.5,-,N/A,,Overcast,250,2012-12-24 23:55:00
7:15 PM,23.0,23.0,100,29.97,10.0,West,4.6,-,N/A,,Mostly Cloudy,260,2012-12-25 00:15:00
7:35 PM,23.0,23.0,100,29.98,10.0,West,4.6,-,N/A,,Overcast,260,2012-12-25 00:35:00
7:55 PM,23.0,23.0,100,29.98,9.0,West,4.6,-,N/A,,Overcast,260,2012-12-25 00:55:00
8:15 PM,23.0,23.0,100,29.98,9.0,West,6.9,-,N/A,,Overcast,260,2012-12-25 01:15:00
8:35 PM,23.0,21.2,93,29.98,10.0,West,6.9,-,N/A,,Overcast,260,2012-12-25 01:35:00
8:55 PM,23.0,21.2,93,29.99,10.0,West,8.1,-,N/A,,Overcast,270,2012-12-25 01:55:00
9:15 PM,23.0,21.2,93,29.99,10.0,West,6.9,-,N/A,,Overcast,270,2012-12-25 02:15:00
9:35 PM,23.0,21.2,93,30.00,10.0,West,6.9,-,N/A,,Overcast,280,2012-12-25 02:35:00
9:55 PM,23.0,21.2,93,30.00,10.0,West,6.9,-,N/A,,Overcast,280,2012-12-25 02:55:00
10:15 PM,23.0,19.4,86,30.00,10.0,West,9.2,-,N/A,,Overcast,280,2012-12-25 03:15:00
10:35 PM,23.0,19.4,86,30.02,10.0,West,9.2,-,N/A,,Overcast,270,2012-12-25 03:35:00
10:55 PM,23.0,19.4,86,30.02,10.0,West,8.1,-,N/A,,Overcast,260,2012-12-25 03:55:00
11:15 PM,23.0,19.4,86,30.03,10.0,West,11.5,-,N/A,,Overcast,260,2012-12-25 04:15:00
11:55 PM,21.2,19.4,93,30.04,10.0,WSW,6.9,-,N/A,,Overcast,250,2012-12-25 04:55:00